Friday Harbor, WA

2:39 PM PDT on September 21, 2017 (GMT -0700)
Friday Harbor

Weather History for KFHR - December, 2012

Change the Weather History Date:

Sunday, December 23, 2012

  Actual Average Record
Temperature  
Mean Temperature 43 °F -  
Max Temperature 45 °F 43 °F 52 °F (2003)
Min Temperature 41 °F 34 °F 16 °F (2008)
Degree Days  
Heating Degree Days 22    
Moisture  
Dew Point 37 °F    
Average Humidity 78    
Maximum Humidity 89    
Minimum Humidity 71    
Precipitation  
Precipitation 0.00 in - - ()
Sea Level Pressure  
Sea Level Pressure 29.70 in    
Wind  
Wind Speed 15 mph (ESE)    
Max Wind Speed 23 mph    
Max Gust Speed 33 mph    
Visibility 10 miles    
Events Rain    
Averages and records for this station are not official NWS values.
T = Trace of Precipitation, MM = Missing Value Source: NWS Daily Summary

Daily Weather History Graph

Daily Weather History Graph

Search for Another Location

Airport or City:

Trip Planner

Search our weather history database for the weather conditions in past years. The results will help you decide how hot, cold, wet, or windy it might be!

Date:

Astronomy

Dec. 23, 2012 Rise Set
Actual Time 8:02 AM PST 4:20 PM PST
Civil Twilight 7:25 AM PST 4:57 PM PST
Nautical Twilight 6:45 AM PST 5:37 PM PST
Astronomical Twilight 6:07 AM PST 6:15 PM PST
Moon 1:23 PM PST (12/23) 3:39 AM PST (12/23)
Length of Visible Light 9h 31m
Length of Day
8h 18m
Waxing Gibbous, 82% of the Moon is Illuminated
Dec 23
Waxing Gibbous
Dec 28
Full
Jan 4
Last Quarter
Jan 11
New
Jan 18
First Quarter

Hourly Weather History & Observations

Time (PST) Temp. Windchill Dew Point Humidity Pressure Visibility Wind Dir Wind Speed Gust Speed Precip Events Conditions
12:53 AM 43.0 °F 33.8 °F 37.0 °F 80% 29.69 in 10.0 mi SSE 23.0 mph 31.1 mph N/A   Overcast
1:53 AM 44.1 °F 35.4 °F 37.0 °F 76% 29.70 in 10.0 mi SE 21.9 mph 31.1 mph N/A   Overcast
2:53 AM 44.1 °F 36.5 °F 37.9 °F 79% 29.71 in 10.0 mi SE 17.3 mph 26.5 mph N/A   Overcast
3:53 AM 44.1 °F 35.9 °F 37.0 °F 76% 29.70 in 10.0 mi SE 19.6 mph 29.9 mph N/A   Overcast
4:53 AM 44.1 °F 35.4 °F 37.0 °F 76% 29.69 in 10.0 mi SE 21.9 mph 33.4 mph N/A   Mostly Cloudy
5:53 AM 44.1 °F 36.5 °F 37.9 °F 79% 29.70 in 10.0 mi SE 17.3 mph 33.4 mph N/A   Overcast
6:53 AM 44.1 °F 35.7 °F 37.0 °F 76% 29.70 in 10.0 mi SE 20.7 mph 29.9 mph N/A   Overcast
7:53 AM 44.1 °F 35.9 °F 37.0 °F 76% 29.69 in 10.0 mi SE 19.6 mph 33.4 mph N/A   Overcast
9:53 AM 44.1 °F 37.4 °F 37.0 °F 76% 29.70 in 10.0 mi ESE 13.8 mph 24.2 mph N/A   Overcast
10:49 AM 44.6 °F 37.2 °F 37.4 °F 76% 29.68 in 10.0 mi SE 17.3 mph 25.3 mph N/A   Mostly Cloudy
10:53 AM 44.1 °F 35.9 °F 37.0 °F 76% 29.68 in 10.0 mi SE 19.6 mph 28.8 mph N/A   Mostly Cloudy
11:53 AM 45.0 °F 39.3 °F 36.0 °F 71% 29.65 in 10.0 mi East 11.5 mph - N/A   Overcast
12:53 PM 45.0 °F 39.7 °F 36.0 °F 71% 29.65 in 10.0 mi ESE 10.4 mph - N/A   Overcast
1:53 PM 45.0 °F 41.8 °F 36.0 °F 71% 29.63 in 10.0 mi ENE 5.8 mph - N/A   Overcast
2:53 PM 44.1 °F 41.5 °F 36.0 °F 73% 29.65 in 10.0 mi NNE 4.6 mph - N/A   Overcast
3:53 PM 44.1 °F - 36.0 °F 73% 29.65 in 10.0 mi Calm Calm - N/A   Overcast
4:53 PM 44.1 °F 38.1 °F 35.1 °F 71% 29.66 in 10.0 mi East 11.5 mph - N/A   Overcast
5:53 PM 43.0 °F 38.8 °F 36.0 °F 76% 29.68 in 10.0 mi East 6.9 mph - 0.00 in Rain Light Rain
6:00 PM 42.8 °F 39.3 °F 35.6 °F 76% 29.68 in 10.0 mi ESE 5.8 mph - 0.00 in Rain Light Rain
6:11 PM 42.8 °F 38.6 °F 35.6 °F 76% 29.68 in 10.0 mi ESE 6.9 mph - 0.00 in Rain Light Rain
6:33 PM 42.8 °F 38.6 °F 37.4 °F 81% 29.69 in 10.0 mi ESE 6.9 mph - 0.00 in   Overcast
6:53 PM 42.1 °F 40.2 °F 37.0 °F 82% 29.70 in 10.0 mi ENE 3.5 mph - 0.00 in   Overcast
7:53 PM 41.0 °F 39.0 °F 37.0 °F 86% 29.72 in 10.0 mi NE 3.5 mph - 0.00 in   Overcast
8:03 PM 41.0 °F 39.0 °F 37.4 °F 87% 29.72 in 10.0 mi NE 3.5 mph - N/A   Overcast
8:53 PM 41.0 °F 39.0 °F 37.9 °F 89% 29.74 in 10.0 mi NNE 3.5 mph - N/A   Overcast
9:53 PM 41.0 °F - 37.0 °F 86% 29.76 in 10.0 mi Calm Calm - N/A   Overcast
10:53 PM 41.0 °F - 37.0 °F 86% 29.79 in 10.0 mi Calm Calm - N/A   Overcast
11:53 PM 41.0 °F - 37.0 °F 86% 29.82 in 10.0 mi Calm Calm - N/A   Overcast